Location: Caltech
(34.1382°N, 118.1253°W)
Time: 06:12:56
(UTC-07:00)

Tiros 1 despin weight - Visible Passes

Search period start: 07 July 2015 00:00
Search period end: 17 July 2015 00:00
Orbit: 597 x 647 km, 48.2° (Epoch: 06 July)

Date Brightness Start Highest point End Pass type
(mag) Time Alt. Az. Time Alt. Az. Time Alt. Az.
07 Jul ? 04:13:03 15° S 04:15:37 24° SE 04:19:26 10° ENE visible
08 Jul ? 04:30:19 20° SSW 04:33:23 51° SE 04:37:58 10° ENE visible
09 Jul ? 03:10:22 16° SE 03:10:22 16° SE 03:12:58 10° E visible
09 Jul ? 04:47:30 16° WSW 04:51:15 78° NW 04:55:58 10° NE visible
10 Jul ? 03:27:29 35° SE 03:27:39 35° SE 03:31:58 10° ENE visible
10 Jul ? 05:04:49 10° WSW 05:09:18 41° NNW 05:13:46 10° NE visible
11 Jul ? 03:44:33 56° SSW 03:45:27 75° SE 03:50:10 10° NE visible
12 Jul ? 02:24:25 16° E 02:24:25 16° E 02:25:47 10° ENE visible
12 Jul ? 04:01:33 33° W 04:03:25 56° NNW 04:08:03 10° NE visible
13 Jul ? 02:41:21 34° E 02:41:21 34° E 02:44:17 10° ENE visible
13 Jul ? 04:18:30 16° W 04:21:32 32° NNW 04:25:46 10° NE visible
14 Jul ? 02:58:15 62° NNE 02:58:15 62° NNE 03:02:17 10° NE visible
14 Jul ? 04:36:10 10° WNW 04:39:50 21° NNW 04:43:27 10° NNE visible
15 Jul ? 01:37:59 11° ENE 01:37:59 11° ENE 01:38:16 10° ENE visible
15 Jul ? 03:15:07 40° NW 03:15:36 41° NNW 03:20:04 10° NE visible
15 Jul ? 04:55:13 10° NW 04:58:15 16° N 05:01:14 10° NNE visible
16 Jul ? 01:54:48 22° ENE 01:54:48 22° ENE 01:56:27 10° NE visible
16 Jul ? 03:31:55 20° WNW 03:33:48 26° NNW 03:37:45 10° NE visible
16 Jul ? 05:14:09 10° NW 05:16:45 14° N 05:19:20 10° NNE visible
